Theta_e
300 300 300 300 301 301 301 301 302 302 302 302 303 303 303 303 302 303 303 305 310 313 313 312 311 311 314 316 320 321 318 327 330 330 329 328 327 328 327 328 328 325 335 339 339
300 300 300 300 301 301 301 301 302 302 302 302 302 302 303 303 303 307 305 312 312 310 308 306 311 310 311 314 316 318 317 320 325 327 327 327 326 326 327 327 327 327 330 337 337
299 300 300 300 301 301 301 302 302 302 302 303 303 303 304 304 315 315 314 312 307 306 306 305 310 312 312 312 314 315 318 320 321 322 323 323 324 325 325 326 327 327 327 326 331
299 299 300 300 300 301 301 302 302 303 303 303 303 303 309 313 315 311 311 313 312 313 313 310 311 311 312 312 313 312 314 317 320 320 321 321 322 323 324 325 325 326 328 327 326
302 300 300 300 301 301 301 302 302 304 303 303 304 303 309 318 317 311 312 312 313 313 313 313 314 312 310 311 312 311 313 314 315 316 319 321 322 323 322 323 324 325 326 327 329
307 306 302 300 301 301 301 302 302 304 305 303 304 304 307 318 311 311 311 312 312 312 312 312 312 312 312 311 310 311 311 312 313 314 315 316 318 320 320 321 322 323 325 326 327
307 307 307 303 300 301 301 302 302 304 308 304 305 305 305 310 311 310 310 309 310 312 312 311 312 311 312 310 312 311 310 310 312 313 314 316 317 317 319 319 320 321 323 325 327
302 306 307 307 300 301 301 302 302 303 308 305 305 308 308 311 310 310 309 310 310 310 310 310 310 312 312 311 311 310 310 309 312 312 314 316 316 317 318 318 318 319 321 323 324
302 302 307 306 301 302 302 304 311 310 311 310 310 317 316 316 311 310 310 310 310 310 310 311 311 312 311 310 308 308 309 310 311 311 311 312 313 314 315 317 318 319 319 321 322
308 301 306 304 302 303 309 313 312 314 312 316 312 314 314 314 311 311 310 310 310 310 310 312 311 309 306 308 310 310 309 309 311 312 312 311 311 312 313 314 314 314 315 318 320
310 303 306 303 303 305 312 312 310 315 310 311 314 317 314 311 310 311 311 310 310 310 309 309 307 306 308 308 311 311 311 310 311 312 312 311 311 312 312 313 312 313 313 314 315
310 305 307 306 308 309 312 312 311 310 310 311 311 311 311 311 310 311 311 310 310 308 308 306 307 309 309 309 309 309 308 308 310 311 311 310 311 312 312 311 312 313 313 314 315
310 307 307 308 312 312 312 312 312 312 309 311 313 312 312 312 310 310 311 311 309 308 308 307 308 309 309 309 311 310 310 311 312 312 310 310 310 310 311 311 312 313 313 313 314
310 307 306 304 310 311 311 312 311 313 310 315 311 311 311 310 310 311 311 310 309 308 308 307 308 309 309 311 311 311 312 312 312 311 310 310 311 310 310 311 311 312 312 313 313
310 305 306 312 312 313 312 311 311 313 314 313 311 312 311 310 311 312 311 310 308 308 308 308 309 308 309 312 312 312 312 310 311 311 310 311 309 310 310 311 311 311 312 312 313
310 303 306 311 313 312 311 311 313 314 315 311 311 311 310 310 311 312 311 311 311 308 308 308 310 311 312 312 313 311 310 309 309 309 311 309 310 310 310 310 311 312 312 313 314
307 309 305 309 312 310 309 313 312 316 315 312 310 311 310 311 312 312 311 310 308 310 309 309 309 312 312 311 310 308 309 308 309 310 311 310 309 309 310 311 312 313 315 315 315
308 311 305 311 311 311 310 311 317 315 311 311 310 310 311 311 311 311 310 309 311 310 310 311 310 311 311 311 310 309 308 309 314 311 310 311 311 310 310 312 315 314 314 313 313
310 315 316 315 314 309 313 312 313 310 309 309 309 311 311 311 310 310 309 311 311 310 310 311 312 311 311 311 309 308 310 308 311 310 312 311 311 310 315 315 315 314 313 313 313
314 315 315 313 312 313 310 314 315 311 310 310 310 312 312 310 310 310 310 312 313 311 309 310 311 310 311 310 310 310 310 310 309 313 314 313 312 312 316 315 314 312 312 313 313
313 315 315 313 311 314 309 314 313 312 311 311 311 311 311 310 310 310 311 311 312 312 309 310 310 311 310 310 310 309 310 311 310 311 310 316 314 312 314 314 313 311 312 313 313
313 310 314 310 310 310 311 311 311 312 311 311 310 311 310 310 310 310 310 311 312 311 312 311 310 311 311 310 310 309 311 311 309 311 315 315 313 312 313 312 312 312 313 314 316
312 313 313 311 308 306 308 310 310 312 312 310 310 310 309 309 310 311 311 311 311 311 311 310 309 312 310 308 310 311 311 311 312 313 314 315 312 312 313 312 312 313 314 314 314
312 308 311 311 309 307 307 309 311 312 312 310 310 309 309 308 309 311 311 311 311 311 313 312 309 311 311 310 308 311 312 312 312 313 312 312 312 312 313 313 312 314 314 314 315
308 307 305 304 306 305 307 308 310 311 309 309 309 309 309 308 308 309 309 311 310 311 311 310 312 312 313 313 313 314 314 314 314 313 313 313 315 313 313 314 312 314 315 314 315
306 306 306 305 306 306 306 308 308 309 308 308 309 309 307 307 307 308 308 309 309 309 309 308 310 313 314 313 313 312 311 315 314 316 315 314 314 312 313 313 314 314 315 315 315
303 304 306 304 304 304 304 306 306 306 307 307 306 306 307 307 308 308 309 309 309 309 308 308 309 310 313 312 312 313 315 315 314 315 314 315 313 311 312 312 312 312 313 317 316
Wind_Speed
16 15 14 14 14 13 11 11 10 10 11 13 13 14 15 16 15 14 15 9 6 6 8 6 7 9 11 9 12 7 2 8 7 11 9 21 7 29 26 21 26 13 5 5 20
18 17 16 15 14 13 12 11 11 11 12 13 14 16 17 17 13 8 4 2 5 8 9 9 9 7 7 9 8 7 5 8 6 10 9 18 23 26 23 30 24 21 11 6 15
18 17 17 16 14 13 12 12 11 12 13 15 15 16 15 11 4 4 2 3 5 4 6 7 8 4 5 13 7 5 11 6 10 12 16 21 28 27 19 18 25 12 19 15 9
17 17 17 16 14 14 12 11 11 12 14 16 15 13 9 4 2 6 9 9 5 5 5 5 4 3 3 5 7 8 14 11 15 22 22 19 33 25 25 30 37 29 24 15 11
19 18 17 16 15 13 12 12 12 13 14 14 12 9 5 4 3 5 7 5 4 5 8 6 7 7 3 5 8 8 10 19 22 25 24 26 26 26 36 37 35 38 26 22 15
21 20 19 17 16 15 12 12 11 13 13 12 9 7 4 3 3 4 6 6 4 2 4 7 5 8 2 2 1 7 9 15 15 20 20 17 22 25 42 36 31 36 33 26 25
22 22 22 19 16 15 13 11 10 11 11 9 9 7 5 6 2 4 6 7 11 8 4 6 8 7 7 8 8 13 7 8 6 5 5 15 18 21 28 29 29 31 37 33 26
24 23 23 22 18 14 12 10 10 10 9 7 6 6 5 4 3 1 7 2 6 2 6 8 11 6 3 5 7 5 1 1 3 6 5 6 23 19 27 29 32 30 32 38 34
27 24 23 23 16 12 9 8 9 7 7 5 3 4 5 4 3 1 3 2 8 4 7 9 6 6 2 2 4 3 4 4 5 6 6 7 17 6 18 19 26 33 34 33 37
28 26 22 20 14 9 6 7 7 3 4 4 5 5 2 5 4 6 3 2 7 15 15 5 5 2 2 3 4 6 6 4 3 3 2 9 15 6 16 18 17 20 25 30 38
28 26 21 17 10 4 10 4 11 1 14 10 11 9 17 5 4 2 6 3 7 11 2 5 3 4 8 9 11 7 7 6 4 5 4 8 16 13 8 13 15 23 26 30 32
27 25 17 11 6 5 7 9 11 8 9 15 18 18 19 17 2 3 4 2 3 4 5 7 3 3 5 6 6 7 5 7 4 9 11 9 20 18 11 7 18 23 28 30 33
25 23 14 3 4 5 7 8 9 12 4 10 6 10 9 9 12 13 9 4 3 1 5 2 9 9 7 7 6 5 4 6 7 11 5 6 19 12 12 12 19 21 25 29 31
23 20 12 2 2 8 9 10 16 13 3 4 4 4 6 5 5 9 12 7 1 5 4 6 8 4 6 4 3 2 6 9 11 8 3 4 13 14 14 11 8 16 24 30 36
23 18 4 4 3 8 11 11 11 11 4 7 4 5 3 5 5 5 17 10 6 7 5 10 5 8 4 1 1 4 3 4 5 8 2 5 6 9 14 19 18 15 25 32 36
22 14 1 1 4 9 12 12 6 4 1 1 3 4 1 9 12 7 13 13 11 4 4 11 12 3 2 1 1 2 4 6 5 1 5 6 7 21 9 13 13 14 27 26 27
16 7 1 2 6 12 9 4 4 4 7 7 6 6 6 5 6 1 5 4 2 3 4 5 2 3 3 2 4 5 4 4 4 2 5 1 6 13 12 15 18 8 17 26 30
9 5 6 4 6 17 10 4 6 7 8 6 6 9 2 12 7 8 6 2 6 2 3 1 5 4 5 2 5 4 6 4 4 4 11 17 8 8 8 13 5 8 14 25 35
7 7 5 1 9 11 4 5 2 5 7 6 6 3 5 9 6 8 7 5 4 4 2 2 4 5 9 8 1 2 3 6 3 8 5 8 13 11 3 6 11 12 14 23 33
5 3 2 5 9 6 5 2 2 3 4 3 3 4 5 8 7 6 5 2 2 5 2 3 6 7 4 5 2 4 3 2 1 3 5 4 8 8 7 10 9 11 12 23 32
3 2 4 5 6 4 3 4 5 16 11 2 2 5 4 2 4 5 3 10 3 2 6 3 2 4 3 3 3 4 2 2 1 2 3 5 6 6 10 9 8 13 22 27 31
4 2 6 4 4 1 1 3 8 9 1 2 1 3 1 4 4 4 6 4 4 3 2 2 1 4 8 18 12 10 5 4 3 5 3 5 9 9 6 6 9 14 25 28 24
8 5 2 4 2 3 6 5 4 7 4 5 5 5 5 4 2 4 6 7 7 5 5 4 2 4 8 5 5 1 4 4 3 3 6 7 7 4 7 10 10 15 20 22 25
6 4 5 4 3 2 5 5 5 11 5 7 4 7 5 3 3 5 8 5 10 9 12 10 5 8 8 9 4 12 18 17 12 5 11 13 22 14 11 11 5 16 19 25 24
7 3 4 4 3 6 2 4 9 5 8 7 4 2 3 4 4 5 4 6 9 13 5 7 7 6 12 17 16 21 21 19 18 17 10 14 7 6 9 14 6 12 9 29 23
5 6 6 8 11 6 3 2 5 9 5 7 3 7 4 4 8 14 11 4 7 7 7 3 5 4 15 15 15 15 19 12 7 8 12 11 11 3 15 16 13 18 21 24 22
6 5 4 6 5 3 2 4 8 10 10 13 7 6 6 7 21 22 23 20 14 11 10 7 5 1 17 5 11 10 3 1 3 8 6 6 2 8 11 13 17 20 26 17 19
Wind_Direction
353 349 346 344 342 339 336 333 331 331 333 335 331 325 322 312 303 292 280 264 264 279 291 270 242 227 215 225 218 206 170 226 224 240 260 295 309 301 323 340 340 353 236 188 197
358 352 349 345 344 341 337 335 331 328 326 326 326 325 325 322 314 296 273 235 333 300 281 269 234 205 216 216 224 191 189 222 230 237 288 298 298 301 320 318 313 345 6 18 188
360 355 350 344 340 339 338 337 336 333 328 321 320 327 330 332 358 30 47 357 323 342 281 264 211 226 216 234 217 225 238 246 260 270 276 282 286 297 309 299 297 320 322 324 55
356 352 348 342 335 332 332 332 333 334 329 319 317 331 342 359 117 32 80 76 69 30 43 145 210 211 221 228 235 255 262 260 261 263 263 274 284 285 285 275 287 294 303 311 270
351 348 344 339 332 324 320 321 327 333 332 324 322 329 341 324 228 56 77 48 23 15 350 311 281 246 213 238 283 257 274 270 268 265 259 262 266 275 283 281 288 293 290 288 297
349 347 342 336 329 321 312 310 320 332 333 326 328 327 315 291 94 17 12 342 322 324 337 323 352 348 284 315 321 310 318 295 279 277 285 268 265 268 269 278 283 288 293 290 284
345 343 340 334 325 318 310 303 311 326 329 321 322 320 273 242 156 284 331 338 313 255 284 340 320 340 337 332 322 305 304 313 288 277 265 288 279 256 269 282 289 278 286 289 280
344 340 337 335 326 317 313 307 306 308 315 320 320 311 250 164 331 47 309 262 9 22 288 293 291 262 233 276 321 323 263 352 320 351 283 195 259 269 278 282 284 287 286 278 276
349 340 336 337 331 321 325 325 317 305 302 315 310 307 274 202 200 337 70 327 325 308 284 282 243 229 273 67 350 318 254 267 300 242 247 216 274 326 322 293 274 275 275 281 286
350 344 336 337 335 335 359 354 351 56 50 313 224 315 183 322 173 339 316 298 300 308 306 261 216 153 23 83 247 260 267 249 227 302 3 294 293 279 299 307 307 322 322 300 276
347 347 340 340 341 6 35 48 18 14 321 266 271 270 294 343 332 274 330 354 346 338 351 319 81 240 249 220 241 264 280 290 278 238 301 282 283 287 288 300 304 304 301 302 305
344 346 344 346 7 36 43 34 7 326 302 290 265 259 267 269 289 290 327 151 333 308 357 8 290 229 286 308 315 321 319 321 293 316 312 287 283 288 287 266 291 289 292 291 298
342 345 342 318 359 9 353 7 353 321 328 302 255 221 227 224 226 245 263 198 186 322 324 214 260 298 310 313 351 5 21 342 318 326 331 303 289 299 298 292 294 290 293 297 302
341 343 338 350 44 43 32 7 334 323 60 268 191 220 192 239 259 229 221 192 184 216 272 261 261 277 302 276 48 358 335 343 329 335 284 14 288 298 303 295 292 302 311 308 306
342 337 331 31 84 17 344 334 315 315 55 179 173 204 211 198 286 207 193 195 197 217 130 250 272 283 290 54 67 220 359 333 287 280 259 232 271 278 308 295 292 293 294 295 293
344 330 241 187 44 352 336 326 308 45 31 90 74 8 321 222 258 228 193 215 248 201 220 239 280 115 129 324 82 57 10 352 318 227 244 216 216 279 268 274 280 295 291 305 318
350 355 54 131 358 341 352 347 51 71 325 7 4 335 322 306 283 306 198 241 27 333 356 343 4 104 118 355 339 77 55 340 333 334 239 8 302 271 273 275 292 324 338 327 324
14 49 117 113 355 349 348 59 69 351 26 30 345 313 6 14 2 353 357 40 47 58 88 87 324 16 2 233 258 234 171 165 270 271 299 299 251 260 297 312 336 346 337 333 330
51 82 74 7 358 358 351 50 146 10 4 353 345 349 353 9 352 17 15 66 43 36 96 307 263 307 286 291 350 264 161 209 214 249 256 264 267 279 318 345 326 316 322 327 324
63 78 70 10 344 347 66 283 295 344 329 18 40 35 342 335 16 24 316 138 94 65 122 313 289 237 286 324 294 162 210 307 313 265 256 261 280 256 311 299 285 309 298 313 313
74 39 20 305 329 20 108 251 304 330 327 156 256 268 268 350 339 329 280 317 113 41 73 42 171 276 335 254 202 323 286 84 172 176 242 310 258 217 236 248 296 304 297 295 304
43 46 0 353 32 51 245 278 318 322 307 57 63 44 320 294 266 271 253 238 92 138 118 213 221 285 265 276 259 244 207 155 130 285 263 267 271 252 238 285 266 300 294 307 311
358 326 321 333 49 335 313 304 263 320 300 219 218 221 251 241 288 269 300 293 252 167 188 177 254 311 317 354 13 181 197 221 234 194 221 263 268 320 258 254 283 286 312 329 321
3 2 338 23 91 36 354 286 313 318 300 32 5 8 8 304 211 233 283 270 318 240 199 172 193 198 241 261 253 278 275 274 261 240 275 254 280 294 290 289 268 299 336 319 334
18 16 8 308 323 330 244 271 307 326 359 16 329 345 310 310 314 253 306 307 320 291 182 148 221 231 246 263 276 276 282 282 264 262 241 290 267 325 321 296 249 277 329 302 330
24 2 334 298 302 313 321 297 316 334 331 301 272 288 276 234 224 276 277 250 230 279 205 199 254 237 272 277 265 287 295 288 293 319 295 303 286 346 327 339 301 305 303 303 320
23 346 312 290 316 318 222 355 306 317 296 333 337 319 300 304 313 287 275 258 240 240 240 217 229 241 272 339 321 297 204 52 276 239 250 271 265 325 309 307 304 312 309 328 347